Location: Le Rocchette
(44.3500°N, 7.8333°E)
Time: 18:06:52
(UTC+00:00)

STARLINK-48 - Pass Details

Date: 17 November 2019
Orbit: 506 x 509 km, 53.0° (Epoch: 14 December)

Event Time Altitude Azimuth Distance (km) Brightness Sun altitude
Exits shadow 04:20:15 83° 62° (ENE) 517 3.4 -22.5°
Drops below altitude 10° 04:24:02 10° 56° (ENE) 1,729 6.8 -21.8°
Sets 04:26:14 0° 57° (ENE) 2,618 7.9 -21.4°
